Regional Weather Roundup
Issued by NWS Charleston, SC

Current Version | Previous Version | Graphics & Text | Print | Product List | Glossary On
Versions: 1 2 3 4 5 6 7 8 9 10 11 12 13 14 15 16 17 18 19 20 21 22 23 24 25 26 27 28 29 30 31 32 33 34 35 36 37 38 39 40 41 42 43 44 45 46 47 48 49 50
000 ASUS42 KCHS 280325 RWRCHS REGIONAL WEATHER ROUNDUP NATIONAL WEATHER SERVICE CHARLESTON SC 1000 PM EST THU NOV 27 2014 NOTE: "FAIR" INDICATES FEW OR NO CLOUDS BELOW 12,000 FEET WITH NO SIGNIFICANT WEATHER AND/OR OBSTRUCTIONS TO VISIBILITY. NOT ALL STATIONS ARE QUALITY CONTROLLED BY THE NATIONAL WEATHER SERVICE. USE DATA WITH CAUTION...ESPECIALLY DEWPOINT OBSERVATIONS. SCZ027-030-031-034>040-042>050-280400- ...SOUTHEAST SOUTH CAROLINA... CITY SKY/WX TMP DP RH WIND PRES REMARKS N CHARLESTON CLEAR 43 33 68 W7 30.27R WATERFRONT PRK N/A 46 N/A N/A W8 N/A MOUNT PLEASANT FAIR 45 34 65 NW8 30.27R JOHNS ISLAND CLEAR 43 37 81 W12 30.28S PINOPOLIS N/A 48 37 66 NW14 30.18R MONCKS CORNER FAIR 43 37 81 CALM 30.27R SUMMERVILLE FAIR 43 34 70 NW6 30.30R BEAUFORT MCAS CLEAR 43 33 68 W8 30.30R BEAUFORT ARPT FAIR 45 34 65 NW10G16 30.30R HILTON HEAD IS CLEAR 46 32 57 NW8 30.31S WALTERBORO CLEAR 43 30 61 NW6 30.31R ALLENDALE FAIR 43 30 61 NW5 30.30R ...SOUTHERN MIDLANDS AND PEE DEE... CITY SKY/WX TMP DP RH WIND PRES REMARKS GEORGETOWN NOT AVBL KINGSTREE NOT AVBL ORANGEBURG CLEAR 42 30 62 NW5 30.30R BARNWELL FAIR 41 32 70 W3 30.31S AIKEN FAIR 37 30 75 W3 30.34R MANNING NOT AVBL COLUMBIA CLEAR 43 27 53 NW3 30.29R SUMTER CLEAR 41 29 63 NW8 30.27R FLORENCE CLEAR 42 31 64 N8 30.26R MYRTLE BEACH CLEAR 43 36 75 NW9 30.24R N MYRTLE BEACH CLEAR 41 37 86 VRB3 30.24R $$ GAZ063-065-086>088-099>101-113>116-118-119-134>141-150-280400- ...SOUTHEAST GEORGIA... CITY SKY/WX TMP DP RH WIND PRES REMARKS SAVANNAH ARPT CLEAR 46 31 55 NW9 30.32R HUNTER AAF CLEAR 45 32 61 NW10 30.29R FORT STEWART CLEAR 44 31 60 NW8 30.32R STATESBORO NOT AVBL SYLVANIA CLEAR 43 33 68 NW7 30.33R CLAXTON FAIR 43 14 31 NW6 30.34S ...CSRA...CENTRAL AND FAR SOUTHEAST GEORGIA... CITY SKY/WX TMP DP RH WIND PRES REMARKS THOMSON CLEAR 37 33 83 W3 30.38R AUGUSTA-BUSH CLEAR 41 27 57 NW9 30.33R AUGUSTA-DANIEL CLEAR 42 27 55 NW9 30.32R SWAINSBORO FAIR 41 34 75 NW5 30.35R VIDALIA CLEAR 41 32 70 NW7 30.35S HAZLEHURST FAIR 42 34 72 NW3 30.35R ALMA CLEAR 43 30 60 NW8 30.34R WAYCROSS CLEAR 44 36 71 N8 30.35R JESUP FAIR 46 34 61 N3 30.34R BAXLEY FAIR 43 32 65 N7 30.35R BRUNSWICK CLEAR 43 32 65 NW3 30.34R SAINT SIMONS CLEAR 45 32 60 NW7 30.32R $$ SCZ027-028-034-036>038-045-046-048>050-GAZ119-141-280400- ...LAKE AND SUPPLEMENTAL COASTAL OBSERVATIONS... STATION/POSITION TIME TEMP WIND PRES WAVE SWELL AIR SEA DIR/SP/G HT/PER HT/PER/DIR (UTC) (F) (DEG/KT/KT) (MB) (FT/S) (FT/S/D) UPR LAKE MARION NOT AVBL WINYAH BAY 0300 41 310/ 3 1024.0S LAKE MURRAY 0300 41 300/ 2/ 6 1025.1S ACE BASIN NERRS 0300 43 300/ 3 1025.0S FORT PULASKI 0300 44 310/ 11/ 13 1026.3R SAPELO ISLAND 0300 45 330/ 10 1026.0S $$ ANZ835-935-AMZ111-154-330-350-352-354-370-450-454-472-280400- ...C-MAN AND BUOY OBSERVATIONS... STATION/POSITION TIME TEMP WIND PRES WAVE SWELL AIR SEA DIR/SP/G HT/PER HT/PER/DIR (UTC) (F) (DEG/KT/KT) (MB) (FT/S) (FT/S/D) FOLLY BEACH CMAN 0300 44 280/ 6/ 10 1025.4R BUOY 41004 0300 56 72 320/ 19/ 27 1023.1R 6/ 5 2/ 9 BUOY 41008 0300 53 63 330/ 23/ 27 1025.2R 4/ 5 CAPERS NEARSHORE 0200 51 290/ 16/ 17 N/A FRIPP NEARSHORE NOT AVBL STATION/POSITION TIME TEMP WIND PRES WAVE SWELL AIR SEA DIR/SP/G HT/PER HT/PER/DIR (UTC) (F) (DEG/KT/KT) (MB) (FT/S) (FT/S/D) 5E ST. MARYS GA 0300 62 N/A 3/ 4 FRYING PAN BUOY 0300 51 70 340/ 19/ 25 1023.0R 8/ 6 2/ 60/14 BUOY 41025 0300 49 320/ 23/ 29 1019.3R 7/ 7 2/150/14 CAPE LOOKOUT NC 0300 46 320/ 17/ 20 1021.8R BUOY 41002 0238 63 73 310/ 23/ 29 1018.2S 11/ 9 3/180/14 BUOY 41010 0300 65 77 320/ 21/ 27 1022.0S 9/ 8 2/14 ST AUGUSTINE FL 0300 49 330/ 9/ 12 1026.7R $$

USA.gov is the U.S. government's official web portal to all federal, state and local government web resources and services.